00:00:04,7EDC0AE0,0,0,51,0,0,143
00:00:12,7EDC0BE0,0,0,51,0,0,144
00:00:20,7EDC0CE0,0,0,51,0,0,144
00:00:28,7EDC0DE0,0,0,51,0,0,144
00:00:36,7EDC0EE0,0,0,51,0,0,144
00:00:52,7EDC10E0,0,0,51,0,0,144
00:01:00,7EDC11E0,0,0,51,0,0,144
00:01:08,7EDC12E0,0,0,51,0,0,145
00:01:16,7EDC13E0,0,0,51,0,0,145
00:01:24,7EDC14E0,0,0,51,0,0,145
00:01:32,7EDC15E0,0,0,51,0,0,145
00:01:40,7EDC16E0,0,0,51,0,0,145
00:01:48,7EDC17E0,0,0,51,0,0,145
00:01:56,7EDC18E0,0,0,51,0,0,146
00:02:04,7EDC19E0,0,0,51,0,0,146
00:02:12,7EDC1AE0,0,0,51,0,0,146
00:02:20,7EDC1BE0,0,0,51,0,0,146
00:02:28,7EDC1CE0,0,0,51,0,0,146
00:02:36,7EDC1DE0,0,0,51,0,0,146
00:02:44,7EDC1EE0,0,0,51,0,0,145
00:02:52,7EDC1FE0,0,0,51,0,0,145
00:03:00,7EDC20E0,0,0,51,0,0,144
00:03:08,7EDC21E0,0,0,51,0,0,144
00:03:16,7EDC22E0,0,0,51,0,0,144
00:03:24,7EDC23E0,0,0,51,0,0,143
00:03:32,7EDC24E0,0,0,51,0,0,143
00:03:40,7EDC25E0,0,0,51,0,0,143
00:03:48,7EDC26E0,0,0,51,0,0,142
00:03:56,7EDC27E0,0,0,51,0,0,142
00:04:04,7EDC28E0,0,0,51,0,0,142
00:04:12,7EDC29E0,0,0,51,0,0,142
00:04:20,7EDC2AE0,0,0,51,0,0,141
00:04:28,7EDC2BE0,0,0,51,0,0,141
00:04:36,7EDC2CE0,0,0,51,0,0,141
00:04:44,7EDC2DE0,0,0,51,0,0,141
00:04:52,7EDC2EE0,0,0,51,0,0,141
00:05:08,7EDC30E0,0,0,51,0,0,141
00:05:16,7EDC31E0,0,0,51,0,0,141
00:05:24,7EDC32E0,0,0,51,0,0,142
00:05:32,7EDC33E0,0,0,51,0,0,142
00:05:40,7EDC34E0,0,0,51,0,0,142
00:05:48,7EDC35E0,0,0,51,0,0,142
00:05:56,7EDC36E0,0,0,51,0,0,143
00:06:04,7EDC37E0,0,0,51,0,0,143
00:06:12,7EDC38E0,0,0,51,0,0,143
00:06:20,7EDC39E0,0,0,51,0,0,143
00:06:28,7EDC3AE0,0,0,51,0,0,143
00:06:36,7EDC3BE0,0,0,51,0,0,143
00:06:44,7EDC3CE0,0,0,51,0,0,144
00:06:52,7EDC3DE0,0,0,51,0,0,144
00:07:00,7EDC3EE0,0,0,51,0,0,144
00:07:08,7EDC3FE0,0,0,51,0,0,144
00:07:16,7EDC40E0,0,0,51,0,0,144
00:07:24,7EDC41E0,0,0,51,0,0,145
00:07:32,7EDC42E0,0,0,51,0,0,145
00:07:40,7EDC43E0,0,0,51,0,0,145
00:07:48,7EDC44E0,0,0,51,0,0,145
00:07:56,7EDC45E0,0,0,51,0,0,145
00:08:04,7EDC46E0,0,0,51,0,0,145
00:08:12,7EDC47E0,0,0,51,0,0,145
00:08:20,7EDC48E0,0,0,51,0,0,145
00:08:28,7EDC49E0,0,0,51,0,0,145
00:08:36,7EDC4AE0,0,0,51,0,0,145
00:08:44,7EDC4BE0,0,0,51,0,0,145
00:08:52,7EDC4CE0,0,0,51,0,0,146
00:09:00,7EDC4DE0,0,0,51,0,0,146
00:09:08,7EDC4EE0,0,0,51,0,0,146
00:09:24,7EDC50E0,0,0,51,0,0,145
00:09:32,7EDC51E0,0,0,51,0,0,145
00:09:40,7EDC52E0,0,0,51,0,0,144
00:09:48,7EDC53E0,0,0,51,0,0,144
00:09:56,7EDC54E0,0,0,51,0,0,144
00:10:04,7EDC55E0,0,0,51,0,0,143
00:10:12,7EDC56E0,0,0,51,0,0,143
00:10:20,7EDC57E0,0,0,51,0,0,143
00:10:28,7EDC58E0,0,0,51,0,0,142
00:10:36,7EDC59E0,0,0,51,0,0,142
00:10:44,7EDC5AE0,0,0,51,0,0,142
00:10:52,7EDC5BE0,0,0,51,0,0,142
00:11:00,7EDC5CE0,0,0,51,0,0,141
00:11:08,7EDC5DE0,0,0,51,0,0,141
00:11:16,7EDC5EE0,0,0,51,0,0,141
00:11:24,7EDC5FE0,0,0,51,0,0,141
00:11:32,7EDC60E0,0,0,51,0,0,141
00:11:40,7EDC61E0,0,0,51,0,0,141
00:11:48,7EDC62E0,0,0,51,0,0,141
00:11:56,7EDC63E0,0,0,51,0,0,141
00:12:04,7EDC64E0,0,0,51,0,0,141
00:12:12,7EDC65E0,0,0,51,0,0,142
00:12:20,7EDC66E0,0,0,51,0,0,142
00:12:28,7EDC67E0,0,0,51,0,0,142
00:12:36,7EDC68E0,0,0,51,0,0,142
00:12:44,7EDC69E0,0,0,51,0,0,143
00:12:52,7EDC6AE0,0,0,51,0,0,143
00:13:00,7EDC6BE0,0,0,51,0,0,143
00:13:08,7EDC6CE0,0,0,51,0,0,143
00:13:16,7EDC6DE0,0,0,51,0,0,143
00:13:24,7EDC6EE0,0,0,51,0,0,144
00:13:40,7EDC70E0,0,0,51,0,0,144
00:13:48,7EDC71E0,0,0,51,0,0,144
00:13:56,7EDC72E0,0,0,51,0,0,144
00:14:04,7EDC73E0,0,0,51,0,0,144
00:14:12,7EDC74E0,0,0,51,0,0,144
00:14:20,7EDC75E0,0,0,51,0,0,145
00:14:28,7EDC76E0,0,0,51,0,0,145
00:14:36,7EDC77E0,0,0,51,0,0,145
00:14:44,7EDC78E0,0,0,51,0,0,145
00:14:52,7EDC79E0,0,0,51,0,0,145
00:15:00,7EDC7AE0,0,0,51,0,0,145
00:15:08,7EDC7BE0,0,0,51,0,0,145
00:15:16,7EDC7CE0,0,0,51,0,0,145
00:15:24,7EDC7DE0,0,0,51,0,0,145
00:15:32,7EDC7EE0,0,0,51,0,0,146
00:15:40,7EDC7FE0,0,0,51,0,0,146
00:15:48,7EDC80E0,0,0,51,0,0,146
00:15:56,7EDC81E0,0,0,51,0,0,145
00:16:04,7EDC82E0,0,0,51,0,0,145
00:16:12,7EDC83E0,0,0,51,0,0,145
00:16:20,7EDC84E0,0,0,51,0,0,144
00:16:28,7EDC85E0,0,0,51,0,0,144
00:16:36,7EDC86E0,0,0,51,0,0,144
00:16:44,7EDC87E0,0,0,51,0,0,143
00:16:52,7EDC88E0,0,0,51,0,0,143
00:17:00,7EDC89E0,0,0,51,0,0,143
00:17:08,7EDC8AE0,0,0,51,0,0,142
00:17:16,7EDC8BE0,0,0,51,0,0,142
00:17:24,7EDC8CE0,0,0,51,0,0,142
00:17:32,7EDC8DE0,0,0,51,0,0,141
00:17:40,7EDC8EE0,0,0,51,0,0,141
00:17:56,7EDC90E0,0,0,51,0,0,141
00:18:04,7EDC91E0,0,0,51,0,0,141
00:18:12,7EDC92E0,0,0,51,0,0,141
00:18:20,7EDC93E0,0,0,51,0,0,141
00:18:28,7EDC94E0,0,0,51,0,0,141
00:18:36,7EDC95E0,0,0,51,0,0,141
00:18:44,7EDC96E0,0,0,51,0,0,142
00:18:52,7EDC97E0,0,0,51,0,0,142
00:19:00,7EDC98E0,0,0,51,0,0,142
00:19:08,7EDC99E0,0,0,51,0,0,142
00:19:16,7EDC9AE0,0,0,51,0,0,142
00:19:24,7EDC9BE0,0,0,51,0,0,143
00:19:32,7EDC9CE0,0,0,51,0,0,143
00:19:40,7EDC9DE0,0,0,51,0,0,143
00:19:48,7EDC9EE0,0,0,51,0,0,143
00:19:56,7EDC9FE0,0,0,51,0,0,144
00:20:04,7EDCA0E0,0,0,51,0,0,144
00:20:12,7EDCA1E0,0,0,51,0,0,144
00:20:20,7EDCA2E0,0,0,51,0,0,144
00:20:28,7EDCA3E0,0,0,51,0,0,144
00:20:36,7EDCA4E0,0,0,51,0,0,144
00:20:44,7EDCA5E0,0,0,51,0,0,144
00:20:52,7EDCA6E0,0,0,51,0,0,144
00:21:00,7EDCA7E0,0,0,51,0,0,145
00:21:08,7EDCA8E0,0,0,51,0,0,145
00:21:16,7EDCA9E0,0,0,51,0,0,145
00:21:24,7EDCAAE0,0,0,51,0,0,145
00:21:32,7EDCABE0,0,0,51,0,0,145
00:21:40,7EDCACE0,0,0,51,0,0,145
00:21:48,7EDCADE0,0,0,51,0,0,146
00:21:56,7EDCAEE0,0,0,51,0,0,146
00:22:12,7EDCB0E0,0,0,51,0,0,146
00:22:20,7EDCB1E0,0,0,51,0,0,146
00:22:28,7EDCB2E0,0,0,51,0,0,145
00:22:36,7EDCB3E0,0,0,51,0,0,145
00:22:44,7EDCB4E0,0,0,51,0,0,145
00:22:52,7EDCB5E0,0,0,51,0,0,144
00:23:00,7EDCB6E0,0,0,51,0,0,144
00:23:08,7EDCB7E0,0,0,51,0,0,144
00:23:16,7EDCB8E0,0,0,51,0,0,143
00:23:24,7EDCB9E0,0,0,51,0,0,143
00:23:32,7EDCBAE0,0,0,51,0,0,143
00:23:40,7EDCBBE0,0,0,51,0,0,142
00:23:48,7EDCBCE0,0,0,51,0,0,142
00:23:56,7EDCBDE0,0,0,51,0,0,142
00:24:04,7EDCBEE0,0,0,51,0,0,141
00:24:12,7EDCBFE0,0,0,51,0,0,141
00:24:20,7EDCC0E0,0,0,51,0,0,141
00:24:28,7EDCC1E0,0,0,51,0,0,141
00:24:36,7EDCC2E0,0,0,51,0,0,140
00:24:44,7EDCC3E0,0,0,51,0,0,141
00:24:52,7EDCC4E0,0,0,51,0,0,141
00:25:00,7EDCC5E0,0,0,51,0,0,141
00:25:08,7EDCC6E0,0,0,51,0,0,141
00:25:16,7EDCC7E0,0,0,51,0,0,142
00:25:24,7EDCC8E0,0,0,51,0,0,142
00:25:32,7EDCC9E0,0,0,51,0,0,142
00:25:40,7EDCCAE0,0,0,51,0,0,142
00:25:48,7EDCCBE0,0,0,51,0,0,142
00:25:56,7EDCCCE0,0,0,51,0,0,143
00:26:04,7EDCCDE0,0,0,51,0,0,143
00:26:12,7EDCCEE0,0,0,51,0,0,143
00:26:28,7EDCD0E0,0,0,51,0,0,143
00:26:36,7EDCD1E0,0,0,51,0,0,144
00:26:44,7EDCD2E0,0,0,51,0,0,144
00:26:52,7EDCD3E0,0,0,51,0,0,144
00:27:00,7EDCD4E0,0,0,51,0,0,144
00:27:08,7EDCD5E0,0,0,51,0,0,144
00:27:16,7EDCD6E0,0,0,51,0,0,144
00:27:24,7EDCD7E0,0,0,51,0,0,145
00:27:32,7EDCD8E0,0,0,51,0,0,145
00:27:40,7EDCD9E0,0,0,51,0,0,145
00:27:48,7EDCDAE0,0,0,51,0,0,145
00:27:56,7EDCDBE0,0,0,51,0,0,145
00:28:04,7EDCDCE0,0,0,51,0,0,145
00:28:12,7EDCDDE0,0,0,51,0,0,145
00:28:20,7EDCDEE0,0,0,51,0,0,145
00:28:28,7EDCDFE0,0,0,51,0,0,146
00:28:36,7EDCE0E0,0,0,51,0,0,146
00:28:44,7EDCE1E0,0,0,51,0,0,146
00:28:52,7EDCE2E0,0,0,51,0,0,146
00:29:00,7EDCE3E0,0,0,51,0,0,146
00:29:08,7EDCE4E0,0,0,51,0,0,145
00:29:16,7EDCE5E0,0,0,51,0,0,145
00:29:24,7EDCE6E0,0,0,51,0,0,144
00:29:32,7EDCE7E0,0,0,51,0,0,144
00:29:40,7EDCE8E0,0,0,51,0,0,144
00:29:48,7EDCE9E0,0,0,51,0,0,143
00:29:56,7EDCEAE0,0,0,51,0,0,143
00:30:04,7EDCEBE0,0,0,51,0,0,143
00:30:12,7EDCECE0,0,0,51,0,0,142
00:30:20,7EDCEDE0,0,0,51,0,0,142
00:30:28,7EDCEEE0,0,0,51,0,0,142
00:30:44,7EDCF0E0,0,0,51,0,0,141
00:30:52,7EDCF1E0,0,0,51,0,0,141
00:31:00,7EDCF2E0,0,0,51,0,0,141
00:31:08,7EDCF3E0,0,0,51,0,0,141
00:31:16,7EDCF4E0,0,0,51,0,0,141
00:31:24,7EDCF5E0,0,0,51,0,0,141
00:31:32,7EDCF6E0,0,0,51,0,0,141
00:31:40,7EDCF7E0,0,0,51,0,0,141
00:31:48,7EDCF8E0,0,0,51,0,0,142
00:31:56,7EDCF9E0,0,0,51,0,0,142
00:32:04,7EDCFAE0,0,0,51,0,0,142
00:32:12,7EDCFBE0,0,0,51,0,0,142
00:32:20,7EDCFCE0,0,0,51,0,0,143
00:32:28,7EDCFDE0,0,0,51,0,0,143
00:32:36,7EDCFEE0,0,0,51,0,0,143
00:32:44,7EDCFFE0,0,0,51,0,0,143
00:32:52,7EDD00E0,0,0,51,0,0,143
00:33:00,7EDD01E0,0,0,51,0,0,143
00:33:08,7EDD02E0,0,0,51,0,0,144
00:33:16,7EDD03E0,0,0,51,0,0,144
00:33:24,7EDD04E0,0,0,51,0,0,144
00:33:32,7EDD05E0,0,0,51,0,0,144
00:33:40,7EDD06E0,0,0,51,0,0,144
00:33:48,7EDD07E0,0,0,51,0,0,145
00:33:56,7EDD08E0,0,0,51,0,0,145
00:34:04,7EDD09E0,0,0,51,0,0,145
00:34:12,7EDD0AE0,0,0,51,0,0,145
00:34:20,7EDD0BE0,0,0,51,0,0,145
00:34:28,7EDD0CE0,0,0,51,0,0,145
00:34:36,7EDD0DE0,0,0,51,0,0,145
00:34:44,7EDD0EE0,0,0,51,0,0,145
00:35:00,7EDD10E0,0,0,51,0,0,145
00:35:08,7EDD11E0,0,0,51,0,0,145
00:35:16,7EDD12E0,0,0,51,0,0,145
00:35:24,7EDD13E0,0,0,51,0,0,146
00:35:32,7EDD14E0,0,0,51,0,0,145
00:35:40,7EDD15E0,0,0,51,0,0,145
00:35:48,7EDD16E0,0,0,51,0,0,145
00:35:56,7EDD17E0,0,0,51,0,0,145
00:36:04,7EDD18E0,0,0,51,0,0,144
00:36:12,7EDD19E0,0,0,51,0,0,144
00:36:20,7EDD1AE0,0,0,51,0,0,143
00:36:28,7EDD1BE0,0,0,51,0,0,143
00:36:36,7EDD1CE0,0,0,51,0,0,143
00:36:44,7EDD1DE0,0,0,51,0,0,142
00:36:52,7EDD1EE0,0,0,51,0,0,142
00:37:00,7EDD1FE0,0,0,51,0,0,142
00:37:08,7EDD20E0,0,0,51,0,0,142
00:37:16,7EDD21E0,0,0,51,0,0,141
00:37:24,7EDD22E0,0,0,51,0,0,141
00:37:32,7EDD23E0,0,0,51,0,0,141
00:37:40,7EDD24E0,0,0,51,0,0,141
00:37:48,7EDD25E0,0,0,51,0,0,141
00:37:56,7EDD26E0,0,0,51,0,0,141
00:38:04,7EDD27E0,0,0,51,0,0,141
00:38:12,7EDD28E0,0,0,51,0,0,141
00:38:20,7EDD29E0,0,0,51,0,0,141
00:38:28,7EDD2AE0,0,0,51,0,0,142
00:38:36,7EDD2BE0,0,0,51,0,0,142
00:38:44,7EDD2CE0,0,0,51,0,0,142
00:38:52,7EDD2DE0,0,0,51,0,0,142
00:39:00,7EDD2EE0,0,0,51,0,0,143
00:39:16,7EDD30E0,0,0,51,0,0,143
00:39:24,7EDD31E0,0,0,51,0,0,143
00:39:32,7EDD32E0,0,0,51,0,0,144
00:39:40,7EDD33E0,0,0,51,0,0,144
00:39:48,7EDD34E0,0,0,51,0,0,144
00:39:56,7EDD35E0,0,0,51,0,0,144
00:40:04,7EDD36E0,0,0,51,0,0,144
00:40:12,7EDD37E0,0,0,51,0,0,144
00:40:20,7EDD38E0,0,0,51,0,0,144
00:40:28,7EDD39E0,0,0,51,0,0,145
00:40:36,7EDD3AE0,0,0,51,0,0,145
00:40:44,7EDD3BE0,0,0,51,0,0,145
00:40:52,7EDD3CE0,0,0,51,0,0,145
00:41:00,7EDD3DE0,0,0,51,0,0,145
00:41:08,7EDD3EE0,0,0,51,0,0,145
00:41:16,7EDD3FE0,0,0,51,0,0,145
00:41:24,7EDD40E0,0,0,51,0,0,145
00:41:32,7EDD41E0,0,0,51,0,0,146
00:41:40,7EDD42E0,0,0,51,0,0,146
00:41:48,7EDD43E0,0,0,51,0,0,146
00:41:56,7EDD44E0,0,0,51,0,0,145
00:42:04,7EDD45E0,0,0,51,0,0,145
00:42:12,7EDD46E0,0,0,51,0,0,145
00:42:20,7EDD47E0,0,0,51,0,0,144
00:42:28,7EDD48E0,0,0,51,0,0,144
00:42:36,7EDD49E0,0,0,51,0,0,144
00:42:44,7EDD4AE0,0,0,51,0,0,143
00:42:52,7EDD4BE0,0,0,51,0,0,143
00:43:00,7EDD4CE0,0,0,51,0,0,143
00:43:08,7EDD4DE0,0,0,51,0,0,142
00:43:16,7EDD4EE0,0,0,51,0,0,142
00:43:32,7EDD50E0,0,0,51,0,0,141
00:43:40,7EDD51E0,0,0,51,0,0,141
00:43:48,7EDD52E0,0,0,51,0,0,141
00:43:56,7EDD53E0,0,0,51,0,0,141
00:44:04,7EDD54E0,0,0,51,0,0,141
00:44:12,7EDD55E0,0,0,51,0,0,141
00:44:20,7EDD56E0,0,0,51,0,0,141
00:44:28,7EDD57E0,0,0,51,0,0,141
00:44:36,7EDD58E0,0,0,51,0,0,141
00:44:44,7EDD59E0,0,0,51,0,0,142
00:44:52,7EDD5AE0,0,0,51,0,0,142
00:45:00,7EDD5BE0,0,0,51,0,0,142
00:45:08,7EDD5CE0,0,0,51,0,0,142
00:45:16,7EDD5DE0,0,0,51,0,0,142
00:45:24,7EDD5EE0,0,0,51,0,0,143
00:45:32,7EDD5FE0,0,0,51,0,0,143
00:45:40,7EDD60E0,0,0,51,0,0,143
00:45:48,7EDD61E0,0,0,51,0,0,143
00:45:56,7EDD62E0,0,0,51,0,0,144
00:46:04,7EDD63E0,0,0,51,0,0,144
00:46:12,7EDD64E0,0,0,51,0,0,144
00:46:20,7EDD65E0,0,0,51,0,0,144
00:46:28,7EDD66E0,0,0,51,0,0,144
00:46:36,7EDD67E0,0,0,51,0,0,144
00:46:44,7EDD68E0,0,0,51,0,0,144
00:46:52,7EDD69E0,0,0,51,0,0,145
00:47:00,7EDD6AE0,0,0,51,0,0,145
00:47:08,7EDD6BE0,0,0,51,0,0,145
00:47:16,7EDD6CE0,0,0,51,0,0,145
00:47:24,7EDD6DE0,0,0,51,0,0,145
00:47:32,7EDD6EE0,0,0,51,0,0,145
00:47:48,7EDD70E0,0,0,51,0,0,146
00:47:56,7EDD71E0,0,0,51,0,0,146
00:48:04,7EDD72E0,0,0,51,0,0,146
00:48:12,7EDD73E0,0,0,51,0,0,146
00:48:20,7EDD74E0,0,0,51,0,0,146
00:48:28,7EDD75E0,0,0,51,0,0,145
00:48:36,7EDD76E0,0,0,51,0,0,145
00:48:44,7EDD77E0,0,0,51,0,0,145
00:48:52,7EDD78E0,0,0,51,0,0,144
00:49:00,7EDD79E0,0,0,51,0,0,144
00:49:08,7EDD7AE0,0,0,51,0,0,143
00:49:16,7EDD7BE0,0,0,51,0,0,143
00:49:24,7EDD7CE0,0,0,51,0,0,143
00:49:32,7EDD7DE0,0,0,51,0,0,142
00:49:40,7EDD7EE0,0,0,51,0,0,142
00:49:48,7EDD7FE0,0,0,51,0,0,142
00:49:56,7EDD80E0,0,0,51,0,0,142
00:50:04,7EDD81E0,0,0,51,0,0,141
00:50:12,7EDD82E0,0,0,51,0,0,141
00:50:20,7EDD83E0,0,0,51,0,0,141
00:50:28,7EDD84E0,0,0,51,0,0,141
00:50:36,7EDD85E0,0,0,51,0,0,141
00:50:44,7EDD86E0,0,0,51,0,0,141
00:50:52,7EDD87E0,0,0,51,0,0,141
00:51:00,7EDD88E0,0,0,51,0,0,141
00:51:08,7EDD89E0,0,0,51,0,0,142
00:51:16,7EDD8AE0,0,0,51,0,0,142
00:51:24,7EDD8BE0,0,0,51,0,0,142
00:51:32,7EDD8CE0,0,0,51,0,0,142
00:51:40,7EDD8DE0,0,0,51,0,0,143
00:51:48,7EDD8EE0,0,0,51,0,0,143
00:52:04,7EDD90E0,0,0,51,0,0,143
00:52:12,7EDD91E0,0,0,51,0,0,143
00:52:20,7EDD92E0,0,0,51,0,0,143
00:52:28,7EDD93E0,0,0,51,0,0,144
00:52:36,7EDD94E0,0,0,51,0,0,144
00:52:44,7EDD95E0,0,0,51,0,0,144
00:52:52,7EDD96E0,0,0,51,0,0,144
00:53:00,7EDD97E0,0,0,51,0,0,144
00:53:08,7EDD98E0,0,0,51,0,0,145
00:53:16,7EDD99E0,0,0,51,0,0,145
00:53:24,7EDD9AE0,0,0,51,0,0,145
00:53:32,7EDD9BE0,0,0,51,0,0,145
00:53:40,7EDD9CE0,0,0,51,0,0,145
00:53:48,7EDD9DE0,0,0,51,0,0,145
00:53:56,7EDD9EE0,0,0,51,0,0,145
00:54:04,7EDD9FE0,0,0,51,0,0,145
00:54:12,7EDDA0E0,0,0,51,0,0,145
00:54:20,7EDDA1E0,0,0,51,0,0,146
00:54:28,7EDDA2E0,0,0,51,0,0,146
00:54:36,7EDDA3E0,0,0,51,0,0,146
00:54:44,7EDDA4E0,0,0,51,0,0,146
00:54:52,7EDDA5E0,0,0,51,0,0,146
00:55:00,7EDDA6E0,0,0,51,0,0,145
00:55:08,7EDDA7E0,0,0,51,0,0,145
00:55:16,7EDDA8E0,0,0,51,0,0,144
00:55:24,7EDDA9E0,0,0,51,0,0,144
00:55:32,7EDDAAE0,0,0,51,0,0,144
00:55:40,7EDDABE0,0,0,51,0,0,143
00:55:48,7EDDACE0,0,0,51,0,0,143
00:55:56,7EDDADE0,0,0,51,0,0,143
00:56:04,7EDDAEE0,0,0,51,0,0,142
00:56:20,7EDDB0E0,0,0,51,0,0,142
00:56:28,7EDDB1E0,0,0,51,0,0,141
00:56:36,7EDDB2E0,0,0,51,0,0,141
00:56:44,7EDDB3E0,0,0,51,0,0,141
00:56:52,7EDDB4E0,0,0,51,0,0,141
00:57:00,7EDDB5E0,0,0,51,0,0,141
00:57:08,7EDDB6E0,0,0,51,0,0,141
00:57:16,7EDDB7E0,0,0,51,0,0,141
00:57:24,7EDDB8E0,0,0,51,0,0,141
00:57:32,7EDDB9E0,0,0,51,0,0,141
00:57:40,7EDDBAE0,0,0,51,0,0,142
00:57:48,7EDDBBE0,0,0,51,0,0,142
00:57:56,7EDDBCE0,0,0,51,0,0,142
00:58:04,7EDDBDE0,0,0,51,0,0,142
00:58:12,7EDDBEE0,0,0,51,0,0,143
00:58:20,7EDDBFE0,0,0,51,0,0,143
00:58:28,7EDDC0E0,0,0,51,0,0,143
00:58:36,7EDDC1E0,0,0,51,0,0,143
00:58:44,7EDDC2E0,0,0,51,0,0,143
00:58:52,7EDDC3E0,0,0,51,0,0,144
00:59:00,7EDDC4E0,0,0,51,0,0,144
00:59:08,7EDDC5E0,0,0,51,0,0,144
00:59:16,7EDDC6E0,0,0,51,0,0,144
00:59:24,7EDDC7E0,0,0,51,0,0,144
00:59:32,7EDDC8E0,0,0,51,0,0,144
00:59:40,7EDDC9E0,0,0,51,0,0,144
00:59:48,7EDDCAE0,0,0,51,0,0,145
00:59:56,7EDDCBE0,0,0,51,0,0,145
01:00:04,7EDDCCE0,0,0,51,0,0,145
01:00:12,7EDDCDE0,0,0,51,0,0,145
01:00:20,7EDDCEE0,0,0,51,0,0,145
01:00:36,7EDDD0E0,0,0,51,0,0,145
01:00:44,7EDDD1E0,0,0,51,0,0,145
01:00:52,7EDDD2E0,0,0,51,0,0,145
01:01:00,7EDDD3E0,0,0,51,0,0,146
01:01:08,7EDDD4E0,0,0,51,0,0,146
01:01:16,7EDDD5E0,0,0,51,0,0,146
01:01:24,7EDDD6E0,0,0,51,0,0,145
01:01:32,7EDDD7E0,0,0,51,0,0,145
01:01:40,7EDDD8E0,0,0,51,0,0,145
01:01:48,7EDDD9E0,0,0,51,0,0,144
01:01:56,7EDDDAE0,0,0,51,0,0,144
01:02:04,7EDDDBE0,0,0,51,0,0,144
01:02:12,7EDDDCE0,0,0,51,0,0,144
01:02:20,7EDDDDE0,0,0,51,0,0,143
01:02:28,7EDDDEE0,0,0,51,0,0,143
01:02:36,7EDDDFE0,0,0,51,0,0,142
01:02:44,7EDDE0E0,0,0,51,0,0,142
01:02:52,7EDDE1E0,0,0,51,0,0,142
01:03:00,7EDDE2E0,0,0,51,0,0,141
01:03:08,7EDDE3E0,0,0,51,0,0,141
01:03:16,7EDDE4E0,0,0,51,0,0,141
01:03:24,7EDDE5E0,0,0,51,0,0,141
01:03:32,7EDDE6E0,0,0,51,0,0,141
01:03:40,7EDDE7E0,0,0,51,0,0,141
01:03:48,7EDDE8E0,0,0,51,0,0,141
01:03:56,7EDDE9E0,0,0,51,0,0,141
01:04:04,7EDDEAE0,0,0,51,0,0,141
01:04:12,7EDDEBE0,0,0,51,0,0,142
01:04:20,7EDDECE0,0,0,51,0,0,142
01:04:28,7EDDEDE0,0,0,51,0,0,142
01:04:36,7EDDEEE0,0,0,51,0,0,142
01:04:52,7EDDF0E0,0,0,51,0,0,143
01:05:00,7EDDF1E0,0,0,51,0,0,143
01:05:08,7EDDF2E0,0,0,51,0,0,143
01:05:16,7EDDF3E0,0,0,51,0,0,143
01:05:24,7EDDF4E0,0,0,51,0,0,144
01:05:32,7EDDF5E0,0,0,51,0,0,144
01:05:40,7EDDF6E0,0,0,51,0,0,144
01:05:48,7EDDF7E0,0,0,51,0,0,144
01:05:56,7EDDF8E0,0,0,51,0,0,144
01:06:04,7EDDF9E0,0,0,51,0,0,144
01:06:12,7EDDFAE0,0,0,51,0,0,144
01:06:20,7EDDFBE0,0,0,51,0,0,145
01:06:28,7EDDFCE0,0,0,51,0,0,145
01:06:36,7EDDFDE0,0,0,51,0,0,145
01:06:44,7EDDFEE0,0,0,51,0,0,145
01:06:52,7EDDFFE0,0,0,51,0,0,145
01:07:00,7EDE00E0,0,0,51,0,0,145
01:07:08,7EDE01E0,0,0,51,0,0,145
01:07:16,7EDE02E0,0,0,51,0,0,146
01:07:24,7EDE03E0,0,0,51,0,0,146
01:07:32,7EDE04E0,0,0,51,0,0,146
01:07:40,7EDE05E0,0,0,51,0,0,146
01:07:48,7EDE06E0,0,0,51,0,0,146
01:07:56,7EDE07E0,0,0,51,0,0,145
01:08:04,7EDE08E0,0,0,51,0,0,145
01:08:12,7EDE09E0,0,0,51,0,0,145
01:08:20,7EDE0AE0,0,0,51,0,0,144
01:08:28,7EDE0BE0,0,0,51,0,0,144
01:08:36,7EDE0CE0,0,0,51,0,0,144
01:08:44,7EDE0DE0,0,0,51,0,0,143
01:08:52,7EDE0EE0,0,0,51,0,0,143
01:09:08,7EDE10E0,0,0,51,0,0,143
01:09:16,7EDE11E0,0,0,51,0,0,142
01:09:24,7EDE12E0,0,0,51,0,0,142
01:09:32,7EDE13E0,0,0,51,0,0,142
01:09:40,7EDE14E0,0,0,51,0,0,141
01:09:48,7EDE15E0,0,0,51,0,0,141
01:09:56,7EDE16E0,0,0,51,0,0,141
01:10:04,7EDE17E0,0,0,51,0,0,141
01:10:12,7EDE18E0,0,0,51,0,0,141
01:10:20,7EDE19E0,0,0,51,0,0,141
01:10:28,7EDE1AE0,0,0,51,0,0,141
01:10:36,7EDE1BE0,0,0,51,0,0,141
01:10:44,7EDE1CE0,0,0,51,0,0,142
01:10:52,7EDE1DE0,0,0,51,0,0,142
01:11:00,7EDE1EE0,0,0,51,0,0,142
01:11:08,7EDE1FE0,0,0,51,0,0,142
01:11:16,7EDE20E0,0,0,51,0,0,142
01:11:24,7EDE21E0,0,0,51,0,0,143
01:11:32,7EDE22E0,0,0,51,0,0,143
01:11:40,7EDE23E0,0,0,51,0,0,143
01:11:48,7EDE24E0,0,0,51,0,0,143
01:11:56,7EDE25E0,0,0,51,0,0,144
01:12:04,7EDE26E0,0,0,51,0,0,144
01:12:12,7EDE27E0,0,0,51,0,0,144
01:12:20,7EDE28E0,0,0,51,0,0,144
01:12:28,7EDE29E0,0,0,51,0,0,144
01:12:36,7EDE2AE0,0,0,51,0,0,144
01:12:44,7EDE2BE0,0,0,51,0,0,144
01:12:52,7EDE2CE0,0,0,51,0,0,145
01:13:00,7EDE2DE0,0,0,51,0,0,145
01:13:08,7EDE2EE0,0,0,51,0,0,145
01:13:24,7EDE30E0,0,0,51,0,0,145
01:13:32,7EDE31E0,0,0,51,0,0,145
01:13:40,7EDE32E0,0,0,51,0,0,145
01:13:48,7EDE33E0,0,0,51,0,0,146
01:13:56,7EDE34E0,0,0,51,0,0,146
01:14:04,7EDE35E0,0,0,51,0,0,146
01:14:12,7EDE36E0,0,0,51,0,0,146
01:14:20,7EDE37E0,0,0,51,0,0,146
01:14:28,7EDE38E0,0,0,51,0,0,146
01:14:36,7EDE39E0,0,0,51,0,0,145
01:14:44,7EDE3AE0,0,0,51,0,0,145
01:14:52,7EDE3BE0,0,0,51,0,0,144
01:15:00,7EDE3CE0,0,0,51,0,0,144
01:15:08,7EDE3DE0,0,0,51,0,0,144
01:15:16,7EDE3EE0,0,0,51,0,0,143
01:15:24,7EDE3FE0,0,0,51,0,0,143
01:15:32,7EDE40E0,0,0,51,0,0,143
01:15:40,7EDE41E0,0,0,51,0,0,142
01:15:48,7EDE42E0,0,0,51,0,0,142
01:15:56,7EDE43E0,0,0,51,0,0,142
01:16:04,7EDE44E0,0,0,51,0,0,141
01:16:12,7EDE45E0,0,0,51,0,0,141
01:16:20,7EDE46E0,0,0,51,0,0,141
01:16:28,7EDE47E0,0,0,51,0,0,141
01:16:36,7EDE48E0,0,0,51,0,0,141
01:16:44,7EDE49E0,0,0,51,0,0,141
01:16:52,7EDE4AE0,0,0,51,0,0,141
01:17:00,7EDE4BE0,0,0,51,0,0,141
01:17:08,7EDE4CE0,0,0,51,0,0,141
01:17:16,7EDE4DE0,0,0,51,0,0,142
01:17:24,7EDE4EE0,0,0,51,0,0,142
01:17:40,7EDE50E0,0,0,51,0,0,142
01:17:48,7EDE51E0,0,0,51,0,0,143
01:17:56,7EDE52E0,0,0,51,0,0,143
01:18:04,7EDE53E0,0,0,51,0,0,143
01:18:12,7EDE54E0,0,0,51,0,0,143
01:18:20,7EDE55E0,0,0,51,0,0,143
01:18:28,7EDE56E0,0,0,51,0,0,143
01:18:36,7EDE57E0,0,0,51,0,0,144
01:18:44,7EDE58E0,0,0,51,0,0,144
01:18:52,7EDE59E0,0,0,51,0,0,144
01:19:00,7EDE5AE0,0,0,51,0,0,144
01:19:08,7EDE5BE0,0,0,51,0,0,144
01:19:16,7EDE5CE0,0,0,51,0,0,145
01:19:24,7EDE5DE0,0,0,51,0,0,145
01:19:32,7EDE5EE0,0,0,51,0,0,145
01:19:40,7EDE5FE0,0,0,51,0,0,145
01:19:48,7EDE60E0,0,0,51,0,0,145
01:19:56,7EDE61E0,0,0,51,0,0,145
01:20:04,7EDE62E0,0,0,51,0,0,145
01:20:12,7EDE63E0,0,0,51,0,0,145
01:20:20,7EDE64E0,0,0,51,0,0,145
01:20:28,7EDE65E0,0,0,51,0,0,145
01:20:36,7EDE66E0,0,0,51,0,0,145
01:20:44,7EDE67E0,0,0,51,0,0,146
01:20:52,7EDE68E0,0,0,51,0,0,146
01:21:00,7EDE69E0,0,0,51,0,0,145
01:21:08,7EDE6AE0,0,0,51,0,0,145
01:21:16,7EDE6BE0,0,0,51,0,0,145
01:21:24,7EDE6CE0,0,0,51,0,0,145
01:21:32,7EDE6DE0,0,0,51,0,0,144
01:21:40,7EDE6EE0,0,0,51,0,0,144
01:21:56,7EDE70E0,0,0,51,0,0,143
01:22:04,7EDE71E0,0,0,51,0,0,143
01:22:12,7EDE72E0,0,0,51,0,0,142
01:22:20,7EDE73E0,0,0,51,0,0,142
01:22:28,7EDE74E0,0,0,51,0,0,142
01:22:36,7EDE75E0,0,0,51,0,0,142
01:22:44,7EDE76E0,0,0,51,0,0,141
01:22:52,7EDE77E0,0,0,51,0,0,141
01:23:00,7EDE78E0,0,0,51,0,0,141
01:23:08,7EDE79E0,0,0,51,0,0,141
01:23:16,7EDE7AE0,0,0,51,0,0,141
01:23:24,7EDE7BE0,0,0,51,0,0,141
01:23:32,7EDE7CE0,0,0,51,0,0,141
01:23:40,7EDE7DE0,0,0,51,0,0,141
01:23:48,7EDE7EE0,0,0,51,0,0,142
01:23:56,7EDE7FE0,0,0,51,0,0,142
01:24:04,7EDE80E0,0,0,51,0,0,142
01:24:12,7EDE81E0,0,0,51,0,0,142
01:24:20,7EDE82E0,0,0,51,0,0,143
01:24:28,7EDE83E0,0,0,51,0,0,143
01:24:36,7EDE84E0,0,0,51,0,0,143
01:24:44,7EDE85E0,0,0,51,0,0,143
01:24:52,7EDE86E0,0,0,51,0,0,143
01:25:00,7EDE87E0,0,0,51,0,0,144
01:25:08,7EDE88E0,0,0,51,0,0,144
01:25:16,7EDE89E0,0,0,51,0,0,144
01:25:24,7EDE8AE0,0,0,51,0,0,144
01:25:32,7EDE8BE0,0,0,51,0,0,144
01:25:40,7EDE8CE0,0,0,51,0,0,144
01:25:48,7EDE8DE0,0,0,51,0,0,144
01:25:56,7EDE8EE0,0,0,51,0,0,144
01:26:12,7EDE90E0,0,0,51,0,0,145
01:26:20,7EDE91E0,0,0,51,0,0,145
01:26:28,7EDE92E0,0,0,51,0,0,145
01:26:36,7EDE93E0,0,0,51,0,0,145
01:26:44,7EDE94E0,0,0,51,0,0,145
01:26:52,7EDE95E0,0,0,51,0,0,145
01:27:00,7EDE96E0,0,0,51,0,0,145
01:27:08,7EDE97E0,0,0,51,0,0,146
01:27:16,7EDE98E0,0,0,51,0,0,146
01:27:24,7EDE99E0,0,0,51,0,0,146
01:27:32,7EDE9AE0,0,0,51,0,0,146
01:27:40,7EDE9BE0,0,0,51,0,0,145
01:27:48,7EDE9CE0,0,0,51,0,0,145
01:27:56,7EDE9DE0,0,0,51,0,0,145
01:28:04,7EDE9EE0,0,0,51,0,0,145
01:28:12,7EDE9FE0,0,0,51,0,0,144
01:28:20,7EDEA0E0,0,0,51,0,0,144
01:28:28,7EDEA1E0,0,0,51,0,0,144
01:28:36,7EDEA2E0,0,0,51,0,0,143
01:28:44,7EDEA3E0,0,0,51,0,0,143
01:28:52,7EDEA4E0,0,0,51,0,0,142
01:29:00,7EDEA5E0,0,0,51,0,0,142
01:29:08,7EDEA6E0,0,0,51,0,0,142
01:29:16,7EDEA7E0,0,0,51,0,0,141
01:29:24,7EDEA8E0,0,0,51,0,0,141
01:29:32,7EDEA9E0,0,0,51,0,0,141
01:29:40,7EDEAAE0,0,0,51,0,0,140
01:29:48,7EDEABE0,0,0,51,0,0,140
01:29:56,7EDEACE0,0,0,51,0,0,141
01:30:04,7EDEADE0,0,0,51,0,0,141
01:30:12,7EDEAEE0,0,0,51,0,0,141
01:30:28,7EDEB0E0,0,0,51,0,0,142
01:30:36,7EDEB1E0,0,0,51,0,0,142
01:30:44,7EDEB2E0,0,0,51,0,0,142
01:30:52,7EDEB3E0,0,0,51,0,0,143
01:31:00,7EDEB4E0,0,0,51,0,0,143
01:31:08,7EDEB5E0,0,0,51,0,0,143
01:31:16,7EDEB6E0,0,0,51,0,0,143
01:31:24,7EDEB7E0,0,0,51,0,0,143
01:31:32,7EDEB8E0,0,0,51,0,0,144
01:31:40,7EDEB9E0,0,0,51,0,0,144
01:31:48,7EDEBAE0,0,0,51,0,0,144
01:31:56,7EDEBBE0,0,0,51,0,0,144
01:32:04,7EDEBCE0,0,0,51,0,0,144
01:32:12,7EDEBDE0,0,0,51,0,0,144
01:32:20,7EDEBEE0,0,0,51,0,0,144
01:32:28,7EDEBFE0,0,0,51,0,0,144
01:32:36,7EDEC0E0,0,0,51,0,0,145
01:32:44,7EDEC1E0,0,0,51,0,0,145
01:32:52,7EDEC2E0,0,0,51,0,0,145
01:33:00,7EDEC3E0,0,0,51,0,0,145
01:33:08,7EDEC4E0,0,0,51,0,0,145
01:33:16,7EDEC5E0,0,0,51,0,0,145
01:33:24,7EDEC6E0,0,0,51,0,0,146
01:33:32,7EDEC7E0,0,0,51,0,0,146
01:33:40,7EDEC8E0,0,0,51,0,0,146
01:33:48,7EDEC9E0,0,0,51,0,0,146
01:33:56,7EDECAE0,0,0,51,0,0,146
01:34:04,7EDECBE0,0,0,51,0,0,145
01:34:12,7EDECCE0,0,0,51,0,0,145
01:34:20,7EDECDE0,0,0,51,0,0,145
01:34:28,7EDECEE0,0,0,51,0,0,144
01:34:44,7EDED0E0,0,0,51,0,0,144
01:34:52,7EDED1E0,0,0,51,0,0,143
01:35:00,7EDED2E0,0,0,51,0,0,143
01:35:08,7EDED3E0,0,0,51,0,0,143
01:35:16,7EDED4E0,0,0,51,0,0,143
01:35:24,7EDED5E0,0,0,51,0,0,142
01:35:32,7EDED6E0,0,0,51,0,0,142
01:35:40,7EDED7E0,0,0,51,0,0,142
01:35:48,7EDED8E0,0,0,51,0,0,141
01:35:56,7EDED9E0,0,0,51,0,0,141
01:36:04,7EDEDAE0,0,0,51,0,0,141
01:36:12,7EDEDBE0,0,0,51,0,0,141
01:36:20,7EDEDCE0,0,0,51,0,0,141
01:36:28,7EDEDDE0,0,0,51,0,0,141
01:36:36,7EDEDEE0,0,0,51,0,0,141
01:36:44,7EDEDFE0,0,0,51,0,0,141
01:36:52,7EDEE0E0,0,0,51,0,0,142
01:37:00,7EDEE1E0,0,0,51,0,0,142